Flag for Austria Weather past 2 weeks in Grieskirchen, Upper Austria, Austria

Now
48 °F

Light rain. Passing clouds.


Feels Like: 43 °F
Forecast: 47 / 51 °F
Wind: 12 mph from Southwest

Location: Linz / Hoersching-Flughafen

Current Time: Dec 18, 2014 at 6:54:16 PM

Latest Report: Dec 18, 2014 at 6:20 PM


Visibility: 4 mi

Pressure: 30.04 "Hg

Humidity: 94%

Dew point: 46 °F

Location of GrieskirchenLocation

Historic Weather in Grieskirchen — Graph

°F

Grieskirchen temperature yesterday

Maximum temperature yesterday: 41 °F (at 12:20 AM)
Minimum temperature yesterday: 36 °F (at 8:50 AM)
Average temperature yesterday: 39 °F

Past Weeks' High & Low Weather Summary

 TemperatureHumidityPressure
High50 °F (Dec 12, 1:20 PM)100% (Dec 6, 10:50 PM)30.42 "Hg (Dec 6, 10:50 PM)
Low30 °F (Dec 9, 8:50 PM)50% (Dec 12, 1:20 PM)29.83 "Hg (Dec 12, 2:20 PM)
Average38 °F87%30.05 "Hg
* Reported Dec 3 5:20 PM — Dec 18 5:50 PM, Grieskirchen, Weather by CustomWeather, © 2014

Note: Actual official high and low records may vary slightly from our data, if they occured in-between our weather recording intervals... More about our weather records

Advertising

Grieskirchen weather history for previous 24 hours

 ConditionsComfort  
Time TempWeatherWind HumidityBarometerVisibility
5:50 PM
Dec 18
48 °FPartly cloudy.10 mph94%30.04 "Hg4 mi
5:20 PM48 °FSprinkles. Passing clouds.9 mph94%30.04 "Hg4 mi
4:50 PM48 °FPassing clouds.9 mph94%30.04 "Hg4 mi
4:20 PM48 °FDrizzle. Fog.6 mph94%30.01 "Hg3 mi
3:50 PM48 °FDrizzle. Fog.2 mph94%30.01 "Hg2 mi
3:20 PM48 °FDrizzle. Fog.2 mph94%30.01 "Hg3 mi
2:50 PM48 °FDrizzle. Partly sunny.2 mph94%30.01 "Hg4 mi
2:20 PM48 °FPartly sunny.3 mph94%30.01 "HgN/A
1:50 PM48 °FSprinkles. Partly sunny.1 mph94%30.01 "HgN/A
1:20 PM50 °FPartly sunny.2 mph82%30.01 "HgN/A
12:50 PM50 °FPartly sunny.3 mph82%30.04 "HgN/A
12:20 PM48 °FPartly sunny.5 mph87%30.04 "HgN/A
11:50 AM48 °FPartly sunny.3 mph87%30.04 "HgN/A
11:20 AM48 °FPartly sunny.1 mph87%30.07 "HgN/A
10:50 AM46 °FBroken clouds.2 mph93%30.07 "HgN/A
10:20 AM46 °FBroken clouds.1 mph93%30.07 "HgN/A
9:50 AM45 °FPartly sunny.2 mph100%30.07 "HgN/A
9:20 AM45 °FPartly sunny.7 mph100%30.07 "Hg6 mi
8:50 AM45 °FPartly sunny.7 mph93%30.04 "Hg4 mi
8:20 AM45 °FPartly sunny.9 mph93%30.04 "Hg5 mi
7:50 AM45 °FFog.10 mph93%30.04 "Hg3 mi
7:20 AM45 °FPassing clouds.8 mph93%30.01 "Hg6 mi
6:50 AM45 °FPartly cloudy.9 mph93%30.01 "Hg6 mi
6:20 AM45 °FDrizzle. Fog.8 mph93%30.01 "Hg3 mi
5:50 AM43 °FDrizzle. Fog.10 mph100%30.01 "Hg3 mi
5:20 AM43 °FDrizzle. Fog.9 mph100%29.98 "Hg3 mi
4:20 AM43 °FPartly cloudy.5 mph93%29.98 "Hg4 mi
3:50 AM43 °FPartly cloudy.8 mph93%29.98 "Hg4 mi
3:20 AM43 °FSprinkles. Passing clouds.9 mph93%29.98 "HgN/A
2:50 AM43 °FSprinkles. Passing clouds.10 mph93%29.98 "Hg4 mi
2:20 AM43 °FPassing clouds.12 mph93%29.98 "HgN/A
1:50 AM43 °FSprinkles. Partly cloudy.10 mph93%29.95 "Hg4 mi
1:20 AM43 °FSprinkles. Fog.12 mph93%29.95 "Hg3 mi
12:50 AM43 °FPartly cloudy.9 mph93%29.92 "Hg4 mi
12:20 AM41 °FDrizzle. Fog.10 mph93%29.92 "Hg3 mi
11:50 PM
Dec 17
41 °FPassing clouds.9 mph93%29.92 "HgN/A
11:20 PM39 °FPassing clouds.5 mph93%29.89 "HgN/A
10:50 PM39 °FPassing clouds.3 mph93%29.89 "Hg6 mi
10:20 PM37 °FPassing clouds.3 mph100%29.89 "Hg4 mi
9:50 PM37 °FPassing clouds.2 mph100%29.86 "Hg4 mi
9:20 PM37 °FLight rain. Passing clouds.5 mph100%29.86 "Hg4 mi
8:50 PM37 °FLight rain. Passing clouds.2 mph100%29.89 "Hg4 mi
8:20 PM37 °FLight rain. Passing clouds.2 mph100%29.86 "Hg5 mi
7:50 PM37 °FLight rain. Partly cloudy.1 mph93%29.86 "Hg6 mi
7:20 PM37 °FLight rain. Partly cloudy.3 mph93%29.86 "Hg6 mi
6:50 PM37 °FLight rain. Partly cloudy.3 mph93%29.86 "HgN/A
6:20 PM39 °FLight rain. Partly cloudy.2 mph87%29.86 "HgN/A
Weather by CustomWeather, © 2014

See weather overviewHow to use our weather pages